User: anonymous   Login
Location: Unspecified
(0.0000°N, 0.0000°E)
Time: 00:07:41
(UTC+02:00)
Language:

Cosmos 540 Rocket - Orbit

View from above orbital plane
View from above orbital plane
View from above satellite
View from above satellite

Ground track
Ground track

The orbit data is extracted from the following two-line orbital elements,

1 06324U 72104B   15187.53678333  .00000170  00000-0  58415-4 0  9994
2 06324 074.0772 344.6375 0009888 304.7811 055.2414 14.43201740232906
Epoch (UTC): 06 July 2015 12:52:58
Eccentricity: 0.0009888
inclination: 74.0772°
perigee height: 741 km
apogee height: 755 km
right ascension of ascending node: 344.6375°
argument of perigee: 304.7811°
revolutions per day: 14.43201740
mean anomaly at epoch: 55.2414°
orbit number at epoch: 23290

The dashed part of the orbit path shows where the satellite is in the earth's shadow,  

DLR